Find Starlink 30370

NORAD ID: 57751 Int'l Des: 2023-131 Owner: SPXS Country: US Constellation: starlink operational
LEOCIRCULAR

Live Position

Loading 3D Globe...

About Starlink 30370

Description loading...

Upcoming Passes

Passes for default location (London). Set your location on the main map for personalized predictions.

Altitude History

Loading altitude history...

Two-Line Element Set

1 57751U 23131V 26106.87840839 .00011993 00000-0 42876-3 0 9990
2 57751 42.9987 301.7652 0001668 270.0459 90.0201 15.28775574145933
Epoch: Apr 16, 2026 • Age: 15 hours

Current Status

Altitude 478.9 km
Velocity 7.63 km/s
Sub-Earth Point 14.20°N, 78.69°E
Launch Date Sep 1, 2023
Age 2.6 years
Type internet

Technical Details

Classification Payload
Mass 730.00 kg
Dry Mass 700.00 kg
Total Mass 730.00 kg
Length 0.30 m
Diameter 4.10 m
Span 29.00 m
Shape Box + pan
Manufacturer SPXS
Bus Type Starlink V2M
Phase Status In Orbit
Owner/State SPXS/US

Most Searched